1504544400.06,2779,17.56,73610.5,-1.97,-3.59,-3.67,0,*69
1504544401.29,2780,17.56,73604.5,-1.97,-3.67,-3.59,0,*6F
1504544402.49,2781,17.56,73604.5,-1.97,-3.75,-3.75,0,*63
1504544403.72,2782,17.56,73600.5,-1.97,-3.63,-3.63,0,*60
1504544404.97,2783,17.56,73592.3,-1.99,-3.71,-3.71,0,*6F
1504544406.2,2784,17.56,73600.5,-1.99,-3.83,-3.83,0,*68
1504544407.41,2785,17.56,73600.8,-1.97,-3.75,-3.67,0,*64
1504544408.65,2786,17.56,73598.3,-1.99,-3.83,-3.71,0,*67
1504544409.9,2787,17.56,73598.5,-1.99,-3.71,-3.67,0,*6C
1504544411.14,2788,17.56,73600.8,-2.01,-3.55,-3.51,0,*62
1504544412.4,2789,17.56,73594.0,-1.99,-3.51,-3.51,0,*65
1504544413.66,2790,17.56,73584.0,-1.99,-3.43,-3.43,0,*6D
1504544414.87,2791,17.56,73584.3,-1.99,-3.27,-3.39,0,*63
1504544416.06,2792,17.56,73584.0,-2.01,-3.31,-3.31,0,*6D
1504544417.28,2793,17.56,73588.5,-1.99,-3.19,-3.27,0,*63
1504544418.5,2794,17.56,73588.8,-1.99,-3.19,-3.27,0,*64
1504544419.73,2795,17.56,73586.0,-1.99,-3.27,-3.43,0,*6A
1504544420.94,2796,17.56,73584.3,-1.97,-3.35,-3.51,0,*67
1504544422.16,2797,17.56,73586.5,-1.97,-3.39,-3.59,0,*62
1504544423.39,2798,17.56,73590.0,-1.97,-3.47,-3.63,0,*6D
1504544424.6,2799,17.56,73574.8,-1.97,-3.59,-3.91,0,*6E
1504544425.84,2800,17.56,73598.0,-1.95,-3.67,-4.05,0,*64
1504544427.1,2801,17.56,73610.8,-1.95,-3.67,-4.01,0,*61
1504544428.32,2802,17.56,73582.0,-1.95,-3.79,-3.87,0,*64
1504544429.54,2803,17.56,73562.0,-1.97,-3.79,-4.01,0,*6E
1504544430.79,2804,17.56,73578.8,-1.95,-3.91,-4.01,0,*6D
1504544432.01,2805,17.56,73598.0,-1.95,-4.13,-4.13,0,*62
1504544433.21,2806,17.56,73586.3,-1.93,-4.21,-4.25,0,*63
1504544434.4,2807,17.56,73586.0,-1.93,-4.33,-4.41,0,*63
1504544435.61,2808,17.56,73592.5,-1.93,-4.37,-5.11,0,*6C
1504544436.79,2809,17.56,73610.0,-1.93,-5.43,-5.43,0,*68
1504544438.01,2810,17.56,73612.3,-1.93,-6.35,-5.11,0,*65
1504544439.24,2811,17.56,73612.0,-1.91,-6.35,-4.37,0,*63
1504544440.48,2812,17.56,73614.3,-1.91,-5.15,-3.75,0,*60
1504544441.71,2813,17.56,73612.0,-1.91,-4.13,-3.47,0,*67
1504544442.97,2814,17.56,73614.0,-1.91,-3.71,-3.63,0,*65
1504544444.19,2815,17.56,73616.3,-1.93,-4.33,-5.15,0,*60
1504544445.37,2816,17.56,73616.5,-1.93,-4.99,-7.15,0,*61
1504544446.65,2817,17.56,73612.0,-1.91,-6.23,-10.67,0,*52
1504544447.84,2818,17.56,73618.3,-1.93,-10.05,-17.69,0,*65
1504544449.06,2819,17.56,73594.3,-1.93,-12.89,-14.43,0,*69
1504544450.31,2820,17.56,73592.0,-1.95,-10.35,-11.93,0,*68
1504544451.57,2821,17.56,73584.5,-1.95,-10.57,-11.93,0,*6D
1504544452.76,2822,17.56,73576.8,-1.97,-10.57,-9.75,0,*5D
1504544453.97,2823,17.56,73574.5,-1.97,-8.25,-9.41,0,*67
1504544455.2,2824,17.56,73584.0,-1.95,-9.01,-13.23,0,*5A
1504544456.45,2825,17.56,73600.0,-1.95,-12.93,-17.59,0,*63
1504544457.7,2826,17.56,73606.8,-1.95,-16.23,-18.65,0,*6F
1504544458.94,2827,17.56,73606.5,-1.95,-18.73,-18.59,0,*6A
1504544460.15,2828,17.56,73608.5,-1.97,-13.51,-15.63,0,*68
1504544461.36,2829,17.56,73606.8,-1.97,-14.97,-17.31,0,*61
1504544462.61,2830,17.56,73608.0,-1.95,-15.63,-17.41,0,*66
1504544463.85,2831,17.56,73602.5,-1.97,-14.75,-16.51,0,*63
1504544465.1,2832,17.56,73600.0,-1.97,-14.05,-18.59,0,*61
1504544466.32,2833,17.56,73600.5,-1.97,-17.25,-19.75,0,*6E
1504544467.56,2834,17.56,73606.0,-1.99,-18.89,-20.69,0,*69
1504544468.8,2835,17.56,73598.8,-2.01,-19.31,-20.73,0,*63
1504544470.01,2836,17.56,73600.8,-2.05,-18.73,-20.25,0,*60
1504544471.27,2837,17.56,73598.8,-2.07,-18.41,-18.31,0,*6C
1504544472.5,2838,17.56,73592.5,-2.07,-13.55,-15.15,0,*66
1504544473.78,2839,17.56,73598.5,-2.07,-11.89,-13.61,0,*61
1504544475.03,2840,17.56,73592.8,-2.09,-11.67,-13.87,0,*69
1504544476.22,2841,17.56,73596.8,-2.09,-13.07,-15.07,0,*62
1504544477.48,2842,17.56,73588.0,-2.11,-14.37,-17.41,0,*6C
1504544478.73,2843,17.56,73592.5,-2.09,-17.17,-16.23,0,*60
1504544479.96,2844,17.56,73600.0,-2.09,-12.79,-12.21,0,*6C
1504544481.19,2845,17.56,73600.8,-2.09,-12.79,-14.23,0,*69
1504544482.41,2846,17.56,73604.8,-2.09,-14.61,-14.93,0,*6E
1504544483.63,2847,17.56,73602.3,-2.09,-14.89,-15.01,0,*63
1504544484.86,2848,17.56,73602.8,-2.09,-16.83,-16.69,0,*69
1504544486.08,2849,17.56,73602.5,-2.09,-18.21,-17.03,0,*63
1504544487.28,2850,17.56,73604.8,-2.09,-15.75,-13.15,0,*64
1504544488.49,2851,17.56,73612.0,-2.09,-10.15,-10.93,0,*6B
1504544489.72,2852,17.56,73618.5,-2.07,-12.25,-10.45,0,*6C
1504544490.91,2853,17.56,73618.3,-2.09,-12.89,-9.71,0,*5A
1504544492.19,2854,17.56,73610.8,-2.07,-11.59,-7.73,0,*51
1504544493.41,2855,17.56,73600.3,-2.09,-8.45,-5.69,0,*62
1504544494.63,2856,17.56,73596.3,-2.09,-6.85,-5.03,0,*6F
1504544495.87,2857,17.56,73596.5,-2.09,-5.85,-4.81,0,*66
1504544497.09,2858,17.56,73586.0,-2.09,-5.39,-4.93,0,*6D
1504544498.34,2859,17.56,73576.0,-2.11,-4.77,-4.77,0,*64
1504544499.56,2860,17.56,73570.0,-2.11,-4.41,-4.37,0,*6F
1504544500.78,2861,17.56,73562.3,-2.11,-4.13,-4.25,0,*6A
1504544501.97,2862,17.56,73560.0,-2.09,-3.91,-4.17,0,*6C
1504544503.19,2863,17.56,73554.5,-2.11,-4.25,-4.53,0,*6C
1504544504.4,2864,17.56,73574.8,-2.11,-4.53,-4.49,0,*61
1504544505.59,2865,17.56,73562.3,-2.09,-4.65,-4.13,0,*63
1504544506.81,2866,17.56,73566.5,-2.11,-4.29,-3.75,0,*66
1504544508.01,2867,17.56,73592.0,-2.09,-3.91,-3.79,0,*66
1504544509.23,2868,17.56,73610.8,-2.07,-4.33,-4.13,0,*63
1504544510.46,2869,17.56,73596.8,-2.07,-4.49,-3.71,0,*6C
1504544511.67,2870,17.56,73602.5,-2.07,-3.87,-3.23,0,*66
1504544512.87,2871,17.56,73594.3,-2.05,-3.35,-3.11,0,*6D
1504544514.1,2872,17.56,73594.0,-2.05,-3.55,-3.47,0,*6B
1504544515.32,2873,17.56,73596.5,-2.07,-3.31,-3.31,0,*6B
1504544516.58,2874,17.56,73602.5,-2.07,-3.55,-3.55,0,*6C
1504544517.77,2875,17.56,73606.8,-2.01,-3.27,-3.39,0,*64
1504544519.0,2876,17.56,73600.0,-2.01,-3.51,-3.67,0,*6D
1504544520.24,2877,17.56,73604.5,-2.05,-3.59,-3.71,0,*67
1504544521.46,2878,17.56,73602.5,-2.05,-3.87,-4.01,0,*6B
1504544522.68,2879,17.56,73598.0,-2.05,-3.83,-4.01,0,*6E
1504544523.88,2880,17.56,73598.3,-2.05,-3.83,-3.83,0,*65
1504544525.1,2881,17.56,73596.8,-2.05,-3.71,-3.75,0,*60
1504544526.33,2882,17.56,73600.5,-2.05,-3.59,-3.67,0,*6A
1504544527.57,2883,17.56,73602.8,-2.05,-3.59,-3.71,0,*6C
1504544528.77,2884,17.56,73602.5,-2.05,-3.75,-3.87,0,*6C
1504544529.96,2885,17.56,73600.8,-2.05,-4.13,-3.95,0,*69
1504544531.15,2886,17.56,73600.8,-2.05,-4.21,-3.87,0,*68
1504544532.39,2887,17.56,73604.0,-1.99,-3.91,-3.71,0,*6A
1504544533.61,2888,17.56,73586.8,-2.01,-3.83,-3.71,0,*64
1504544534.84,2889,17.56,73596.3,-2.01,-3.71,-3.67,0,*6F
1504544536.03,2890,17.56,73590.3,-2.05,-3.75,-3.83,0,*6D
1504544537.27,2891,17.56,73590.0,-2.05,-3.59,-3.71,0,*6F
1504544538.51,2892,17.56,73592.5,-2.05,-3.59,-3.71,0,*6C
1504544539.73,2893,17.56,73588.5,-2.05,-3.67,-3.75,0,*64
1504544540.96,2894,17.56,73590.8,-2.01,-3.67,-3.71,0,*63
1504544542.17,2895,17.56,73590.5,-2.01,-3.63,-3.79,0,*6E
1504544543.39,2896,17.56,73586.5,-2.01,-3.67,-3.91,0,*6F
1504544544.58,2897,17.56,73592.3,-2.01,-3.91,-4.45,0,*69
1504544545.77,2898,17.56,73588.5,-2.01,-4.17,-4.57,0,*6C
1504544547.03,2899,17.56,73578.8,-1.99,-4.73,-5.73,0,*6A
1504544548.24,2900,17.56,73574.5,-1.99,-5.39,-6.09,0,*6A
1504544549.49,2901,17.56,73590.5,-2.01,-5.85,-5.85,0,*69
1504544550.73,2902,17.56,73582.8,-2.01,-7.05,-6.19,0,*66
1504544551.97,2903,17.56,73594.0,-1.99,-6.93,-6.09,0,*6A
1504544553.18,2904,17.56,73592.3,-1.99,-6.13,-6.09,0,*65
1504544554.42,2905,17.56,73590.0,-1.99,-5.65,-6.09,0,*66
1504544555.63,2906,17.56,73592.3,-2.01,-5.07,-5.97,0,*67
1504544556.85,2907,17.56,73594.5,-1.99,-5.51,-7.23,0,*6A
1504544558.07,2908,17.56,73592.0,-1.99,-6.01,-7.11,0,*62
1504544559.32,2909,17.56,73598.5,-2.01,-7.57,-9.11,0,*6D
1504544560.55,2910,17.56,73600.8,-1.99,-10.01,-10.01,0,*6B
1504544561.77,2911,17.5,73606.0,-2.01,-10.63,-9.93,0,*5F
1504544562.96,2912,17.56,73598.0,-2.01,-10.27,-8.41,0,*52
1504544564.23,2913,17.56,73596.5,-1.99,-8.51,-7.43,0,*64
1504544565.47,2914,17.56,73590.0,-1.99,-7.91,-6.89,0,*67
1504544566.68,2915,17.56,73580.0,-2.01,-6.77,-5.77,0,*6F
1504544567.93,2916,17.56,73586.0,-1.99,-5.51,-5.19,0,*61
1504544569.2,2917,17.5,73590.0,-1.99,-5.07,-5.11,0,*6B
1504544570.39,2918,17.56,73580.0,-2.01,-5.35,-5.51,0,*63
1504544571.63,2919,17.56,73582.8,-1.99,-4.99,-5.11,0,*63
1504544572.89,2920,17.5,73592.8,-1.99,-4.69,-5.19,0,*6E
1504544574.15,2921,17.56,73588.3,-1.99,-4.81,-5.73,0,*65
1504544575.36,2922,17.5,73586.8,-2.01,-5.61,-6.77,0,*6C
1504544576.6,2923,17.56,73590.3,-1.97,-6.19,-7.43,0,*6B
1504544577.84,2924,17.56,73592.3,-1.99,-7.35,-8.17,0,*63
1504544579.05,2925,17.56,73594.8,-1.99,-8.29,-7.83,0,*62
1504544580.3,2926,17.56,73598.8,-1.99,-7.57,-6.89,0,*6C
1504544581.54,2927,17.56,73602.3,-1.99,-6.81,-7.43,0,*60
1504544582.75,2928,17.56,73594.0,-2.01,-7.31,-8.55,0,*6F
1504544583.99,2929,17.56,73596.5,-1.99,-7.35,-9.93,0,*63
1504544585.21,2930,17.56,73604.0,-2.01,-8.67,-12.71,0,*57
1504544586.44,2931,17.56,73600.3,-1.99,-11.41,-15.71,0,*6F
1504544587.67,2932,17.56,73592.8,-2.01,-12.65,-12.97,0,*64
1504544588.87,2933,17.56,73600.8,-2.01,-11.41,-10.05,0,*69
1504544590.08,2934,17.56,73594.5,-2.01,-9.37,-9.19,0,*63
1504544591.3,2935,17.56,73586.8,-2.05,-8.97,-7.91,0,*63
1504544592.54,2936,17.5,73584.8,-2.07,-7.49,-6.97,0,*69
1504544593.73,2937,17.56,73586.3,-2.05,-6.43,-6.73,0,*6B
1504544594.95,2938,17.5,73590.5,-2.05,-6.55,-7.01,0,*67
1504544596.19,2939,17.56,73588.3,-2.07,-8.41,-8.03,0,*62
1504544597.42,2940,17.56,73588.0,-2.05,-8.07,-7.11,0,*60
1504544598.66,2941,17.56,73598.3,-2.07,-7.11,-7.39,0,*61
1504544599.85,2942,17.56,73598.5,-2.05,-6.55,-7.53,0,*6D
1504544601.07,2943,17.5,73596.8,-2.01,-6.47,-7.27,0,*68
1504544602.27,2944,17.5,73600.3,-2.01,-6.69,-8.51,0,*6D
1504544603.46,2945,17.56,73594.8,-2.01,-7.83,-9.93,0,*66
1504544604.66,2946,17.56,73598.3,-2.01,-10.45,-12.97,0,*67
1504544605.88,2947,17.56,73594.5,-2.01,-12.83,-15.15,0,*63
1504544607.13,2948,17.5,73596.8,-2.01,-12.83,-13.37,0,*6A
1504544608.38,2949,17.56,73604.3,-2.05,-12.11,-14.55,0,*67
1504544609.61,2950,17.56,73610.3,-2.05,-14.75,-16.75,0,*6B
1504544610.87,2951,17.56,73604.0,-2.07,-13.87,-16.79,0,*6E
1504544612.06,2952,17.5,73586.8,-2.05,-16.89,-19.03,0,*66
1504544613.34,2953,17.5,73586.8,-2.07,-17.55,-18.93,0,*6D
1504544614.59,2954,17.5,73582.8,-2.07,-19.85,-16.93,0,*67
1504544615.87,2955,17.56,73582.8,-2.07,-18.93,-14.75,0,*6A
1504544617.09,2956,17.56,73588.5,-2.09,-18.17,-13.37,0,*6A
1504544618.32,2957,17.56,73590.3,-2.09,-16.37,-11.63,0,*64
1504544619.55,2958,17.5,73574.8,-2.09,-12.75,-10.27,0,*68
1504544620.78,2959,17.56,73576.0,-2.11,-9.31,-10.01,0,*5E
1504544622.0,2960,17.56,73594.8,-2.09,-9.75,-11.93,0,*57
1504544623.25,2961,17.56,73602.3,-2.11,-10.57,-12.61,0,*69
1504544624.51,2962,17.56,73604.5,-2.09,-10.71,-11.89,0,*62
1504544625.77,2963,17.56,73606.8,-2.11,-10.71,-11.41,0,*6E
1504544627.02,2964,17.5,73608.8,-2.09,-10.79,-11.89,0,*6C
1504544628.24,2965,17.5,73608.0,-2.09,-11.41,-12.61,0,*62
1504544629.47,2966,17.5,73606.8,-2.09,-12.07,-12.29,0,*6C
1504544630.73,2967,17.5,73608.0,-2.11,-10.41,-10.93,0,*67
1504544631.97,2968,17.56,73608.5,-2.11,-10.41,-10.85,0,*6F
1504544633.2,2969,17.5,73602.8,-2.11,-11.23,-11.19,0,*6F
1504544634.48,2970,17.56,73600.8,-2.11,-12.53,-10.71,0,*6C
1504544635.75,2971,17.5,73594.0,-2.11,-12.65,-9.83,0,*5D
1504544636.96,2972,17.56,73596.0,-2.15,-12.39,-8.81,0,*50
1504544638.21,2973,17.56,73598.5,-2.13,-11.41,-7.35,0,*5B
1504544639.43,2974,17.5,73590.3,-2.15,-9.27,-6.93,0,*6E
1504544640.68,2975,17.5,73590.3,-2.13,-7.99,-6.81,0,*61
1504544641.92,2976,17.5,73588.3,-2.13,-7.05,-6.43,0,*69
1504544643.11,2977,17.56,73594.5,-2.15,-6.81,-6.47,0,*67
1504544644.31,2978,17.56,73594.3,-2.15,-6.73,-6.55,0,*66
1504544645.5,2979,17.56,73588.8,-2.15,-7.49,-7.11,0,*6E
1504544646.74,2980,17.56,73588.8,-2.15,-7.77,-7.05,0,*60
1504544647.93,2981,17.56,73596.3,-2.15,-7.49,-6.73,0,*6C
1504544649.17,2982,17.56,73592.5,-2.17,-7.35,-6.59,0,*6E
1504544650.39,2983,17.56,73588.8,-2.19,-6.93,-6.31,0,*62
1504544651.6,2984,17.56,73590.5,-2.17,-6.59,-6.13,0,*6D
1504544652.8,2985,17.56,73592.5,-2.17,-6.69,-6.13,0,*6F
1504544654.01,2986,17.56,73588.0,-2.17,-6.69,-6.05,0,*6B
1504544655.23,2987,17.5,73586.8,-2.15,-7.23,-6.27,0,*67
1504544656.44,2988,17.5,73590.5,-2.15,-7.39,-6.05,0,*63
1504544657.69,2989,17.5,73588.8,-2.15,-6.97,-5.27,0,*64
1504544658.93,2990,17.5,73594.3,-2.17,-6.55,-5.11,0,*65
1504544660.17,2991,17.56,73596.5,-2.19,-5.69,-4.69,0,*68
1504544661.44,2992,17.56,73596.5,-2.17,-5.23,-4.73,0,*60
1504544662.67,2993,17.56,73600.3,-2.17,-4.85,-4.57,0,*6A
1504544663.93,2994,17.56,73602.8,-2.17,-4.77,-4.77,0,*62
1504544665.2,2995,17.5,73602.5,-2.17,-5.03,-5.23,0,*61
1504544666.41,2996,17.5,73600.3,-2.17,-5.51,-6.05,0,*62
1504544667.66,2997,17.56,73610.5,-2.17,-5.89,-6.81,0,*6A
1504544668.9,2998,17.56,73606.5,-2.17,-6.31,-6.97,0,*62
1504544670.09,2999,17.56,73600.8,-2.15,-7.15,-7.49,0,*64
1504544671.34,3000,17.5,73600.8,-2.15,-7.65,-7.77,0,*66
1504544672.58,3001,17.5,73600.8,-2.17,-7.73,-7.87,0,*6D
1504544673.84,3002,17.56,73600.0,-2.17,-7.27,-7.35,0,*66
1504544675.08,3003,17.56,73608.0,-2.17,-7.53,-7.35,0,*64
1504544676.35,3004,17.5,73592.5,-2.17,-7.99,-7.73,0,*67
1504544677.61,3005,17.5,73596.5,-2.17,-8.07,-8.11,0,*65
1504544678.83,3006,17.56,73602.3,-2.17,-8.85,-8.41,0,*69
1504544680.05,3007,17.5,73600.3,-2.17,-9.23,-8.21,0,*63
1504544681.27,3008,17.56,73606.8,-2.17,-9.53,-8.59,0,*64
1504544682.49,3009,17.56,73606.0,-2.17,-8.55,-8.89,0,*6F
1504544683.71,3010,17.56,73610.0,-2.17,-8.45,-10.05,0,*5B
1504544684.99,3011,17.56,73604.3,-2.17,-9.15,-12.83,0,*52
1504544686.2,3012,17.5,73600.8,-2.19,-10.23,-15.25,0,*69
1504544687.45,3013,17.5,73598.8,-2.17,-12.29,-17.25,0,*6C
1504544688.73,3014,17.5,73600.3,-2.17,-13.83,-17.97,0,*63
1504544689.97,3015,17.5,73606.5,-2.19,-15.21,-18.93,0,*69
1504544691.18,3016,17.56,73606.5,-2.19,-16.27,-19.03,0,*67
1504544692.39,3017,17.56,73604.3,-2.19,-17.49,-20.29,0,*6D
1504544693.59,3018,17.56,73602.8,-2.19,-18.45,-21.39,0,*61
1504544694.83,3019,17.5,73596.0,-2.19,-18.59,-21.97,0,*69
1504544696.03,3020,17.5,73602.0,-2.19,-19.51,-21.73,0,*60
1504544697.28,3021,17.56,73600.8,-2.19,-19.27,-18.59,0,*62
1504544698.5,3022,17.5,73600.0,-2.19,-16.65,-16.97,0,*64
1504544699.73,3023,17.5,73602.3,-2.19,-15.75,-18.01,0,*66
1504544700.95,3024,17.5,73600.5,-2.19,-17.25,-21.09,0,*64
1504544702.22,3025,17.5,73604.0,-2.21,-18.89,-19.81,0,*6C
1504544703.47,3026,17.5,73600.3,-2.21,-20.79,-19.71,0,*64
1504544704.69,3027,17.5,73602.8,-2.19,-18.93,-16.93,0,*62
1504544705.92,3028,17.5,73606.8,-2.19,-17.17,-16.83,0,*6F
1504544707.18,3029,17.5,73610.5,-2.21,-20.49,-17.83,0,*6B
1504544708.41,3030,17.5,73616.3,-2.23,-21.87,-15.67,0,*6A
1504544709.67,3031,17.5,73608.8,-2.23,-19.31,-12.65,0,*68
1504544710.92,3032,17.5,73598.5,-2.29,-17.83,-10.79,0,*69
1504544712.16,3033,17.5,73584.5,-2.29,-14.15,-9.01,0,*53
1504544713.36,3034,17.56,73568.3,-2.27,-12.21,-8.63,0,*5E
1504544714.6,3035,17.5,73562.3,-2.29,-10.71,-8.59,0,*5F
1504544715.82,3036,17.5,73566.8,-2.27,-9.23,-8.11,0,*61
1504544717.02,3037,17.5,73582.0,-2.27,-8.37,-7.83,0,*60
1504544718.27,3038,17.5,73598.5,-2.27,-7.99,-8.07,0,*67
1504544719.5,3039,17.5,73596.0,-2.27,-8.37,-8.07,0,*6D
1504544720.73,3040,17.56,73598.5,-2.29,-8.03,-8.67,0,*6C
1504544721.99,3041,17.56,73598.5,-2.27,-7.73,-10.41,0,*56
1504544723.22,3042,17.56,73600.8,-2.29,-8.71,-12.97,0,*5F
1504544724.44,3043,17.5,73594.8,-2.23,-10.05,-15.57,0,*65
1504544725.64,3044,17.5,73598.5,-2.27,-12.39,-18.79,0,*6A
1504544726.89,3045,17.5,73602.3,-2.29,-15.15,-20.53,0,*6F
1504544728.14,3046,17.5,73602.8,-2.29,-17.63,-22.11,0,*6B
1504544729.38,3047,17.5,73600.8,-2.27,-19.57,-23.79,0,*62
1504544730.6,3048,17.56,73604.3,-2.29,-21.47,-25.19,0,*69
1504544731.86,3049,17.56,73602.3,-2.29,-22.11,-24.71,0,*67
1504544733.11,3050,17.5,73600.3,-2.29,-22.11,-23.69,0,*61
1504544734.37,3051,17.56,73606.3,-2.29,-21.23,-20.89,0,*6F
1504544735.6,3052,17.5,73604.0,-2.31,-20.09,-20.83,0,*66
1504544736.83,3053,17.5,73600.3,-2.31,-19.47,-22.73,0,*6A
1504544738.08,3054,17.5,73602.0,-2.31,-20.53,-23.53,0,*61
1504544739.34,3055,17.56,73604.3,-2.33,-21.67,-24.31,0,*67
1504544740.61,3056,17.5,73600.8,-2.33,-22.77,-25.61,0,*62
1504544741.87,3057,17.5,73604.5,-2.33,-23.75,-26.29,0,*6F
1504544743.14,3058,17.5,73602.3,-2.37,-24.47,-26.29,0,*62
1504544744.4,3059,17.56,73606.3,-2.35,-24.11,-25.29,0,*61
1504544745.68,3060,17.56,73606.3,-2.37,-23.53,-24.83,0,*69
1504544746.92,3061,17.5,73604.3,-2.39,-23.29,-26.03,0,*61
1504544748.2,3062,17.5,73604.8,-2.41,-23.99,-26.55,0,*65
1504544749.45,3063,17.56,73608.3,-2.41,-24.57,-27.19,0,*68
1504544750.71,3064,17.5,73610.5,-2.43,-24.87,-27.39,0,*62
1504544751.94,3065,17.56,73608.8,-2.43,-24.77,-27.35,0,*60
1504544753.16,3066,17.5,73608.0,-2.45,-25.09,-27.39,0,*61
1504544754.36,3067,17.5,73610.3,-2.45,-25.23,-27.51,0,*66
1504544755.55,3068,17.5,73610.5,-2.49,-25.65,-27.93,0,*69
1504544756.8,3069,17.5,73610.5,-2.51,-24.97,-26.97,0,*68
1504544758.03,3070,17.5,73614.3,-2.51,-24.77,-26.07,0,*67
1504544759.26,3071,17.5,73608.3,-2.49,-24.67,-25.13,0,*68
1504544760.51,3072,17.5,73610.8,-2.49,-23.19,-25.29,0,*6C
1504544761.73,3073,17.5,73610.5,-2.53,-23.33,-26.49,0,*6B
1504544762.98,3074,17.5,73608.8,-2.53,-24.87,-26.33,0,*69
1504544764.25,3075,17.5,73610.5,-2.55,-25.45,-26.17,0,*67
1504544765.5,3076,17.5,73610.3,-2.55,-25.03,-25.87,0,*6C
1504544766.72,3077,17.5,73606.5,-2.55,-25.19,-25.13,0,*6B
1504544767.93,3078,17.5,73608.8,-2.57,-24.61,-23.09,0,*65
1504544769.13,3079,17.5,73608.0,-2.57,-19.81,-19.07,0,*63
1504544770.38,3080,17.5,73610.3,-2.59,-18.55,-17.31,0,*68
1504544771.63,3081,17.5,73600.0,-2.59,-12.89,-12.11,0,*65
1504544772.88,3082,17.5,73594.5,-2.61,-11.81,-14.83,0,*6B
1504544774.13,3083,17.5,73596.3,-2.61,-14.79,-15.85,0,*6F
1504544775.34,3084,17.5,73596.0,-2.61,-15.07,-15.53,0,*6B
1504544776.57,3085,17.5,73598.5,-2.61,-13.23,-14.05,0,*68
1504544777.77,3086,17.5,73602.0,-2.61,-13.73,-16.37,0,*6D
1504544778.98,3087,17.5,73600.0,-2.61,-17.63,-18.99,0,*63
1504544780.24,3088,17.5,73598.3,-2.63,-20.83,-22.27,0,*68
1504544781.49,3089,17.5,73590.3,-2.63,-22.41,-23.19,0,*69
1504544782.76,3090,17.5,73594.5,-2.63,-22.21,-24.11,0,*68
1504544784.02,3091,17.56,73598.0,-2.63,-22.37,-25.97,0,*61
1504544785.27,3092,17.5,73594.3,-2.63,-23.85,-27.13,0,*64
1504544786.5,3093,17.5,73594.5,-2.65,-24.97,-27.19,0,*6D
1504544787.75,3094,17.5,73596.3,-2.67,-25.03,-27.03,0,*6F
1504544788.99,3095,17.5,73592.0,-2.67,-24.93,-26.71,0,*62
1504544790.28,3096,17.5,73596.0,-2.67,-24.71,-26.33,0,*6B
1504544791.53,3097,17.5,73598.0,-2.67,-25.35,-26.77,0,*6B
1504544792.77,3098,17.5,73598.0,-2.69,-26.07,-27.35,0,*6F
1504544794.01,3099,17.5,73598.5,-2.69,-26.33,-27.71,0,*69
1504544795.21,3100,17.5,73596.5,-2.73,-26.45,-27.71,0,*62
1504544796.44,3101,17.5,73598.5,-2.69,-26.55,-27.67,0,*6E
1504544797.67,3102,17.5,73598.0,-2.73,-26.61,-27.61,0,*67
1504544798.9,3103,17.5,73600.8,-2.75,-26.61,-27.77,0,*67
1504544800.12,3104,17.5,73596.8,-2.77,-26.87,-27.77,0,*6A
1504544801.41,3105,17.5,73600.8,-2.77,-26.97,-27.35,0,*6C
1504544802.6,3106,17.5,73600.0,-2.79,-26.87,-26.87,0,*68
1504544803.84,3107,17.5,73602.3,-2.81,-26.65,-26.39,0,*67
1504544805.08,3108,17.5,73600.5,-2.81,-26.23,-26.17,0,*66
1504544806.34,3109,17.5,73604.5,-2.83,-25.75,-25.97,0,*6E
1504544807.56,3110,17.5,73602.0,-2.85,-25.23,-25.91,0,*65
1504544808.85,3111,17.5,73608.5,-2.85,-24.71,-26.13,0,*6B
1504544810.08,3112,17.5,73608.5,-2.87,-24.87,-26.45,0,*60
1504544811.33,3113,17.5,73610.5,-2.87,-25.03,-26.13,0,*6F
1504544812.55,3114,17.5,73606.8,-2.87,-24.47,-25.65,0,*6B
1504544813.8,3115,17.5,73608.5,-2.89,-24.67,-26.45,0,*67
1504544815.02,3116,17.5,73604.0,-2.89,-24.97,-26.65,0,*69
1504544816.27,3117,17.5,73604.0,-2.89,-25.19,-26.77,0,*6C
1504544817.47,3118,17.5,73608.3,-2.87,-25.49,-26.49,0,*65
1504544818.67,3119,17.5,73602.3,-2.87,-25.61,-26.49,0,*6E
1504544819.93,3120,17.5,73598.8,-2.87,-25.29,-26.29,0,*6E
1504544821.18,3121,17.5,73596.0,-2.89,-24.61,-25.29,0,*6F
1504544822.46,3122,17.5,73602.5,-2.89,-23.85,-24.83,0,*60
1504544823.69,3123,17.5,73606.3,-2.87,-24.05,-25.45,0,*6B
1504544824.94,3124,17.5,73594.5,-2.89,-24.77,-26.17,0,*63
1504544826.22,3125,17.5,73602.3,-2.89,-25.03,-26.81,0,*6F
1504544827.49,3126,17.5,73592.3,-2.89,-25.81,-27.19,0,*66
1504544828.75,3127,17.5,73596.5,-2.89,-26.13,-27.03,0,*64
1504544830.01,3128,17.5,73594.8,-2.91,-26.17,-26.81,0,*6D
1504544831.24,3129,17.5,73602.0,-2.95,-25.81,-26.39,0,*67
1504544832.45,3130,17.5,73604.8,-2.91,-25.35,-26.03,0,*6D
1504544833.68,3131,17.5,73608.8,-2.95,-25.09,-25.55,0,*67
1504544834.87,3132,17.5,73608.5,-2.95,-24.93,-25.35,0,*60
1504544836.1,3133,17.5,73604.8,-2.95,-25.09,-25.81,0,*6C
1504544837.33,3134,17.5,73596.0,-2.95,-25.39,-26.81,0,*6B
1504544838.53,3135,17.5,73596.5,-2.95,-25.35,-26.87,0,*60
1504544839.76,3136,17.5,73598.8,-2.99,-25.75,-26.61,0,*63
1504544841.03,3137,17.5,73596.5,-2.97,-25.45,-26.13,0,*6A
1504544842.26,3138,17.5,73600.8,-2.99,-25.39,-25.75,0,*63
1504544843.5,3139,17.5,73602.3,-2.99,-25.55,-25.39,0,*60
1504544844.75,3140,17.5,73600.8,-2.97,-25.23,-24.71,0,*6C
1504544845.97,3141,17.5,73602.0,-2.99,-24.87,-24.57,0,*68
1504544847.2,3142,17.5,73592.8,-2.99,-24.31,-24.15,0,*60
1504544848.44,3143,17.5,73602.5,-2.99,-24.47,-23.19,0,*6B
1504544849.69,3144,17.5,73592.8,-2.99,-23.33,-22.31,0,*63
1504544850.95,3145,17.5,73594.5,-2.99,-23.03,-22.21,0,*60
1504544852.23,3146,17.5,73606.3,-3.01,-23.33,-21.87,0,*6F
1504544853.51,3147,17.5,73600.3,-3.01,-23.65,-21.57,0,*60
1504544854.74,3148,17.5,73600.5,-2.99,-23.13,-20.99,0,*6D
1504544855.97,3149,17.5,73600.8,-2.99,-21.43,-20.49,0,*66
1504544857.22,3150,17.5,73604.0,-3.01,-21.63,-21.03,0,*63
1504544858.46,3151,17.5,73598.0,-3.01,-21.63,-20.63,0,*65
1504544859.71,3152,17.5,73602.0,-3.01,-19.47,-18.01,0,*64
1504544860.97,3153,17.5,73602.5,-3.01,-17.59,-18.07,0,*62
1504544862.2,3154,17.5,73606.3,-3.01,-19.03,-17.49,0,*61
1504544863.49,3155,17.5,73600.3,-3.01,-19.57,-16.17,0,*6B
1504544864.69,3156,17.5,73600.5,-3.03,-18.21,-13.43,0,*6E
1504544865.94,3157,17.5,73600.5,-3.01,-14.79,-12.21,0,*69
1504544867.2,3158,17.5,73602.8,-3.01,-12.79,-14.19,0,*6D
1504544868.43,3159,17.5,73600.8,-3.01,-13.55,-15.71,0,*6C
1504544869.71,3160,17.5,73598.0,-3.01,-15.81,-17.03,0,*6E
1504544870.97,3161,17.5,73598.3,-3.01,-16.83,-15.39,0,*65
1504544872.19,3162,17.5,73598.8,-3.01,-15.99,-13.65,0,*61
1504544873.43,3163,17.5,73594.5,-3.03,-14.37,-11.67,0,*67
1504544874.72,3164,17.5,73600.8,-3.01,-12.35,-10.67,0,*67
1504544875.94,3165,17.5,73592.5,-3.03,-10.71,-10.85,0,*6A
1504544877.19,3166,17.5,73598.3,-3.01,-10.05,-12.07,0,*60
1504544878.47,3167,17.5,73602.0,-3.01,-11.73,-16.13,0,*60
1504544879.69,3168,17.5,73606.0,-3.01,-15.25,-18.99,0,*64
1504544880.95,3169,17.5,73606.0,-3.01,-18.83,-20.79,0,*61
1504544882.21,3170,17.5,73604.5,-2.99,-19.41,-21.27,0,*6C
1504544883.41,3171,17.5,73600.5,-2.99,-21.43,-22.67,0,*63
1504544884.64,3172,17.5,73600.8,-2.99,-21.53,-22.93,0,*6A
1504544885.86,3173,17.5,73604.3,-2.99,-22.03,-24.15,0,*65
1504544887.06,3174,17.5,73606.5,-2.99,-22.67,-25.23,0,*64
1504544888.27,3175,17.5,73604.3,-2.99,-23.59,-26.07,0,*6C
1504544889.53,3176,17.5,73604.8,-2.99,-24.25,-26.55,0,*64
1504544890.79,3177,17.5,73608.8,-2.99,-24.71,-26.71,0,*62
1504544891.99,3178,17.5,73610.0,-2.99,-25.23,-26.87,0,*62
1504544893.22,3179,17.5,73610.5,-2.99,-25.55,-27.03,0,*6F
1504544894.5,3180,17.5,73606.5,-3.01,-25.81,-27.35,0,*65
1504544895.73,3181,17.5,73606.3,-3.03,-26.07,-27.45,0,*6C
1504544896.93,3182,17.5,73606.3,-3.03,-26.07,-27.51,0,*6A
1504544898.19,3183,17.5,73604.8,-3.01,-25.65,-27.35,0,*6C
1504544899.44,3184,17.5,73602.5,-3.01,-25.91,-27.45,0,*67
1504544900.67,3185,17.5,73608.5,-3.03,-25.19,-26.81,0,*6D
1504544901.89,3186,17.5,73608.3,-3.03,-25.45,-27.07,0,*68
1504544903.14,3187,17.5,73608.3,-3.03,-25.45,-26.81,0,*66
1504544904.35,3188,17.5,73606.5,-3.03,-24.77,-26.07,0,*67
1504544905.6,3189,17.5,73606.8,-3.03,-24.15,-25.81,0,*6F
1504544906.84,3190,17.5,73606.8,-3.03,-24.51,-25.75,0,*6C
1504544908.08,3191,17.5,73604.8,-3.03,-24.47,-26.13,0,*69
1504544909.34,3192,17.5,73600.0,-3.05,-24.21,-25.09,0,*64
1504544910.59,3193,17.5,73606.5,-3.05,-23.29,-24.51,0,*66
1504544911.8,3194,17.5,73604.0,-3.03,-22.57,-24.77,0,*6B